Location: Gwatt
(46.7204°N, 7.6223°E)
Time: 01:36:45
(UTC+00:00)

Transit 2A - Pass Details

Date: 22 January 2021
Orbit: 601 x 958 km, 66.7° (Epoch: 07 March)

Event Time Altitude Azimuth Distance (km) Brightness Sun altitude
Rises 05:16:51 0° 245° (WSW) 3,465 - -18.2°
Reaches altitude 10° 05:19:44 10° 256° (WSW) 2,474 - -17.7°
Exits shadow 05:23:33 28° 294° (WNW) 1,493 6.9 -17.1°
Maximum altitude 05:24:41 30° 316° (NW) 1,402 6.9 -16.9°
Drops below altitude 10° 05:29:16 10° 18° (NNE) 2,270 8.5 -16.1°
Sets 05:31:49 0° 29° (NNE) 3,135 9.4 -15.7°
